Flag for U.S.A. Weather past 2 weeks in Moreno Valley, California, U.S.A.

Now
54 °F

Partly cloudy.


Feels Like: 52 °F
Forecast: 51 / 63 °F
Wind: 6 mph from Northwest

Location: Riverside / March Air Force Base

Current Time: Apr 25, 2015 at 2:51:46 AM

Latest Report: Apr 25, 2015 at 1:58 AM


Visibility: 10 mi

Pressure: 29.97 "Hg

Humidity: 94%

Dew point: 52 °F

Location of Moreno ValleyLocation

Historic Weather in Moreno Valley — Graph

°F

Moreno Valley temperature yesterday

Maximum temperature yesterday: 62 °F (at 5:58 PM)
Minimum temperature yesterday: 53 °F (at 1:58 AM)
Average temperature yesterday: 56 °F

Past Weeks' High & Low Weather Summary

 TemperatureHumidityPressure
High83 °F (Apr 18, 2:58 PM)100% (Apr 10, 5:01 AM)30.10 "Hg (Apr 10, 5:01 AM)
Low40 °F (Apr 11, 4:58 AM)6% (Apr 16, 3:58 PM)29.78 "Hg (Apr 20, 3:58 PM)
Average61 °F54%29.94 "Hg
* Reported Apr 10 12:58 AM — Apr 25 12:58 AM, Moreno Valley, Weather by CustomWeather, © 2015

Note: Actual official high and low records may vary slightly from our data, if they occured in-between our weather recording intervals... More about our weather records

Advertising

Moreno Valley weather history for previous 24 hours

 ConditionsComfort  
Time TempWeatherWind HumidityBarometerVisibility
12:58 AM
Sat, Apr 25
54 °FMostly cloudy.6 mph94%29.97 "Hg10 mi
12:03 AM55 °FMostly cloudy.2 mph88%29.99 "Hg10 mi
11:58 PM
Fri, Apr 24
55 °FMostly cloudy.No wind92%29.98 "Hg10 mi
10:58 PM55 °FOvercast.5 mph92%29.99 "Hg10 mi
9:58 PM55 °FMostly cloudy.7 mph88%30.00 "Hg10 mi
8:58 PM57 °FOvercast.6 mph80%29.98 "Hg10 mi
7:58 PM57 °FOvercast.8 mph79%29.96 "Hg10 mi
6:58 PM58 °FMostly cloudy.8 mph75%29.96 "Hg10 mi
5:58 PM62 °FMostly cloudy.9 mph70%29.96 "Hg10 mi
3:58 PM60 °FMore clouds than sun.5 mph71%29.96 "Hg10 mi
2:58 PM60 °FOvercast.2 mph71%29.97 "Hg10 mi
1:58 PM59 °FOvercast.6 mph71%29.98 "Hg10 mi
12:58 PM60 °FOvercast.7 mph70%29.99 "Hg10 mi
11:58 AM58 °FOvercast.1 mph73%29.99 "Hg10 mi
10:58 AM58 °FMostly cloudy.1 mph77%29.99 "Hg10 mi
9:58 AM57 °FMostly cloudy.5 mph81%29.99 "Hg10 mi
8:58 AM55 °FCloudy.3 mph90%29.98 "Hg10 mi
7:58 AM54 °FOvercast.2 mph94%29.97 "Hg10 mi
6:58 AM54 °FOvercast.2 mph97%29.94 "Hg10 mi
5:58 AM53 °FMostly cloudy.3 mph99%29.92 "Hg10 mi
4:58 AM54 °FMostly cloudy.5 mph100%29.90 "Hg10 mi
3:58 AM54 °FOvercast.7 mph100%29.90 "Hg9 mi
2:58 AM53 °FLow clouds.5 mph100%29.90 "Hg10 mi
Weather by CustomWeather, © 2015

See weather overviewHow to use our weather pages